Regional Weather Roundup
Issued by NWS Kansas City/Pleasant Hill, MO

Home | Current Version | Previous Version | Graphics & Text | Print | Product List | Glossary Off
Versions: 1 2 3 4 5 6 7 8 9 10 11 12 13 14 15 16 17 18 19 20 21 22 23 24 25 26 27 28 29 30 31 32 33 34 35 36 37 38 39 40 41 42 43 44 45 46 47 48 49 50

000
ASUS43 KEAX 312010
RWREAX

WEATHER ROUNDUP FOR EASTERN KANSAS AND NORTHWEST MISSOURI
NATIONAL WEATHER SERVICE KANSAS CITY/PLEASANT HILL MO
200 PM CST SAT JAN 31 2015

KSZ040-057-103>105-MOZ028-029-037-043-312100-
...KANSAS CITY METROPOLITAN AREA...

CITY           SKY/WX    TMP DP  RH WIND       PRES   REMARKS
K.C. INTL      LGT RAIN  38  36  92 S9        30.11F WCI  31
K.C. DOWNTOWN  LGT RAIN  40  36  86 S9        30.12F WCI  34
LEES SUMMIT    LGT RAIN  39  36  89 S7        30.13F FOG     WCI  34
OLATHE - IXD   LGT RAIN  37  35  92 S14       30.11F FOG     WCI  28
OLATHE - OJC   LGT RAIN  38  35  89 S12       30.10F FOG     WCI  30
LAWRENCE       LGT RAIN  37  35  92 S8        30.11F FOG     WCI  31

$$

MOZ001>008-011>017-020>025-030>033-038>040-044>046-053-054-312100-
...NORTHERN AND CENTRAL MISSOURI...

CITY           SKY/WX    TMP DP  RH WIND       PRES   REMARKS
ST. JOSEPH     LGT RAIN  38  36  92 S10       30.11F FOG     WCI  31
MOSBY          DRIZZLE   37  37 100 SE5       30.14F WCI  34
WARRENSBURG    CLOUDY    37  36  93 SE6       30.15F WCI  33
WHITEMAN AFB   CLOUDY    39  37  92 SW5       30.14F
CLINTON        CLOUDY    43  36  75 SE5       30.16F
SEDALIA        CLOUDY    39  36  89 E13       30.16F WCI  31
WARSAW         NOT AVBL
MARSHALL       LGT RAIN  39  37  93 SE8       30.21F WCI  34
CHILLICOTHE      N/A     39  37  92 SE6       30.17F WCI  35
MOBERLY        DRIZZLE   37  34  87 S10       30.21F WCI  30
KIRKSVILLE     LGT RAIN  36  36 100 S6        30.18F FOG     WCI  31

$$

MOZ041-047>049-056>058-063>065-088>090-097-312100-
...EASTERN AND SOUTHERN MISSOURI...

CITY           SKY/WX    TMP DP  RH WIND       PRES   REMARKS
ST. LOUIS INTL CLOUDY    45  23  42 CALM      30.23F
SPIRIT OF STL  CLOUDY    43  25  49 CALM      30.23F
COLUMBIA       LGT RAIN  38  32  79 SE3       30.20F
JEFFERSON CITY LGT RAIN  39  32  76 S5        30.23F
MEXICO         CLOUDY    41  36  81 S8        30.21
HANNIBAL       LGT SNOW  36  34  93 S5        30.21F WCI  32
ROLLA          LGT RAIN  38  30  73 CALM      30.20F
LEBANON        CLOUDY    41  27  56 SE6       30.17F
OSAGE BEACH    CLOUDY    37  34  87 E7        30.18F WCI  32
SPRINGFIELD    CLOUDY    45  15  30 SE14      30.13F
BRANSON        CLOUDY    45  23  42 SE12      30.16F
NEVADA         CLOUDY    41  34  75 NE5       30.11F
JOPLIN         CLOUDY    48  17  29 S9        30.12F
WEST PLAINS    CLOUDY    44  18  35 SE9       30.19F

$$

IAZ060-094-KSZ022-034>040-054-083-096-NEZ052-066-093-312100-
...KANSAS...SOUTHEAST NEBRASKA AND IOWA...

CITY           SKY/WX    TMP DP  RH WIND       PRES   REMARKS
TOPEKA         LGT RAIN  36  34  92 SE9       30.09F FOG     WCI  29
MANHATTAN      LGT RAIN  35  35 100 SE8       30.03F FOG     WCI  29
EMPORIA        LGT RAIN  37  37 100 SE13      30.05F FOG     WCI  29
CHANUTE        LGT RAIN  39  35  86 S9        30.10F WCI  33
WICHITA        LGT RAIN  40  38  93 S16       30.00F WCI  31
OMAHA          LGT SNOW  33  32  96 S10       30.05F VSB 3/4 WCI  25
LINCOLN        LGT SNOW  33  32  96 SE12      30.02F FOG     WCI  24
FALLS CITY     LGT RAIN  33  33 100 SE10      30.07F FOG     WCI  25
LAMONI         LGT RAIN  36  35  96 S9        30.12F WCI  29
DES MOINES     LGT RAIN  38  35  89 SW8       30.12F WCI  32

$$




USA.gov is the U.S. government's official web portal to all federal, state and local government web resources and services.